Weather History for Columbia Airport, CA

Change the Weather History Date:

Wednesday, May 14, 2014

  Actual Average (KMOD) Record (KMOD)
Temperature  
Mean Temperature 70 °F -  
Max Temperature 89 °F 83 °F 102 °F (1972)
Min Temperature 50 °F 55 °F 42 °F (1943)
Degree Days  
Heating Degree Days 0 1  
Month to date heating degree days 21  
Since 1 July heating degree days 2155  
Cooling Degree Days 4 5  
Month to date cooling degree days 53  
Year to date cooling degree days 97  
Growing Degree Days 20 (Base 50)    
Moisture  
Dew Point 41 °F    
Average Humidity 41    
Maximum Humidity 71    
Minimum Humidity 14    
Precipitation  
Precipitation 0.00 in 0.02 in 0.44 in (1949)
Month to date precipitation 0.33  
Year to date precipitation 8.33  
Since 1 July precipitation 12.69  
Snow  
Snow 0.00 in - - ()
Month to date snowfall  
Since 1 July snowfall  
Snow Depth -    
Sea Level Pressure  
Sea Level Pressure 30.16 in    
Wind  
Wind Speed 2 mph (WSW)    
Max Wind Speed 8 mph    
Max Gust Speed -    
Visibility 10 miles    
Events      
T = Trace of Precipitation, MM = Missing Value Source: NWS Daily Summary

Daily Weather History Graph

Daily Weather History Graph

Search for Another Location

Airport:

Trip Planner

Search our weather history database for the weather conditions in past years. The results will help you decide how hot, cold, wet, or windy it might be!

Date:

Astronomy

May. 14, 2014 Rise Set
Actual Time 5:52 AM PDT 8:04 PM PDT
Civil Twilight 5:22 AM PDT 8:34 PM PDT
Nautical Twilight 4:46 AM PDT 9:10 PM PDT
Astronomical Twilight 4:07 AM PDT 9:49 PM PDT
Moon 8:15 PM PDT (5/14) 5:53 AM PDT (5/14)
Length of Visible Light 15h 11m
Length of Day
14h 12m
Full, 100% of the Moon is Illuminated
May 14
Full
May 14
Full
May 21
Last Quarter
May 28
New
Jun 5
First Quarter

Hourly Weather History & Observations

Time (PDT) Temp. Dew Point Humidity Pressure Visibility Wind Dir Wind Speed Gust Speed Precip Events Conditions
12:15 AM 55.4 °F 41.0 °F 58% 30.19 in 10.0 mi NNW 3.5 mph - N/A   Clear
12:35 AM 55.4 °F 41.0 °F 58% 30.19 in 10.0 mi Calm Calm - N/A   Clear
12:55 AM 55.4 °F 41.0 °F 58% 30.19 in 10.0 mi Calm Calm - N/A   Clear
1:15 AM 53.6 °F 41.0 °F 62% 30.19 in 10.0 mi Calm Calm - N/A   Clear
1:35 AM 53.6 °F 41.0 °F 62% 30.19 in 10.0 mi Calm Calm - N/A   Clear
1:55 AM 53.6 °F 41.0 °F 62% 30.19 in 10.0 mi Calm Calm - N/A   Clear
2:15 AM 53.6 °F 41.0 °F 62% 30.19 in 10.0 mi Calm Calm - N/A   Clear
2:35 AM 51.8 °F 41.0 °F 67% 30.18 in 10.0 mi NNE 3.5 mph - N/A   Clear
2:55 AM 50.0 °F 41.0 °F 71% 30.18 in 10.0 mi Calm Calm - N/A   Clear
3:15 AM 50.0 °F 41.0 °F 71% 30.18 in 10.0 mi Calm Calm - N/A   Clear
3:55 AM 51.8 °F 41.0 °F 67% 30.18 in 10.0 mi NNE 3.5 mph - N/A   Clear
4:15 AM 50.0 °F 41.0 °F 71% 30.18 in 10.0 mi Calm Calm - N/A   Clear
4:35 AM 50.0 °F 41.0 °F 71% 30.18 in 10.0 mi Calm Calm - N/A   Clear
4:55 AM 50.0 °F 41.0 °F 71% 30.17 in 10.0 mi Calm Calm - N/A   Clear
5:15 AM 50.0 °F 41.0 °F 71% 30.17 in 10.0 mi Calm Calm - N/A   Clear
5:35 AM 50.0 °F 41.0 °F 71% 30.17 in 10.0 mi Calm Calm - N/A   Clear
5:55 AM 50.0 °F 41.0 °F 71% 30.18 in 10.0 mi Calm Calm - N/A   Clear
6:15 AM 50.0 °F 41.0 °F 71% 30.18 in 10.0 mi Calm Calm - N/A   Clear
6:35 AM 53.6 °F 42.8 °F 67% 30.18 in 10.0 mi Calm Calm - N/A   Clear
6:55 AM 57.2 °F 46.4 °F 67% 30.18 in 10.0 mi Calm Calm - N/A   Clear
7:15 AM 62.6 °F 48.2 °F 59% 30.19 in 10.0 mi Calm Calm - N/A   Clear
7:35 AM 66.2 °F 46.4 °F 49% 30.19 in 10.0 mi Calm Calm - N/A   Clear
7:55 AM 68.0 °F 46.4 °F 46% 30.19 in 10.0 mi Calm Calm - N/A   Clear
8:15 AM 71.6 °F 44.6 °F 38% 30.19 in 10.0 mi Calm Calm - N/A   Clear
8:35 AM 73.4 °F 42.8 °F 33% 30.19 in 10.0 mi Calm Calm - N/A   Clear
8:55 AM 77.0 °F 39.2 °F 26% 30.19 in 10.0 mi Calm Calm - N/A   Clear
9:35 AM 80.6 °F 41.0 °F 24% 30.19 in 10.0 mi WSW 4.6 mph - N/A   Clear
9:55 AM 80.6 °F 35.6 °F 20% 30.19 in 10.0 mi WSW 4.6 mph - N/A   Clear
10:15 AM 82.4 °F 37.4 °F 20% 30.19 in 10.0 mi South 4.6 mph - N/A   Clear
10:35 AM 82.4 °F 35.6 °F 19% 30.19 in 10.0 mi Calm Calm - N/A   Clear
10:55 AM 84.2 °F 37.4 °F 19% 30.19 in 10.0 mi SSW 5.8 mph - N/A   Clear
11:15 AM 84.2 °F 37.4 °F 19% 30.19 in 10.0 mi South 3.5 mph - N/A   Clear
11:35 AM 84.2 °F 37.4 °F 19% 30.19 in 10.0 mi SSE 5.8 mph - N/A   Clear
11:55 AM 84.2 °F 35.6 °F 18% 30.19 in 10.0 mi SSW 5.8 mph - N/A   Clear
12:15 PM 86.0 °F 35.6 °F 17% 30.18 in 10.0 mi SSW 4.6 mph - N/A   Clear
12:55 PM 87.8 °F 32.0 °F 14% 30.18 in 10.0 mi SSW 3.5 mph - N/A   Clear
1:15 PM 89.6 °F 35.6 °F 15% 30.17 in 10.0 mi South 5.8 mph - N/A   Clear
1:35 PM 89.6 °F 37.4 °F 16% 30.17 in 10.0 mi South 3.5 mph - N/A   Clear
1:55 PM 87.8 °F 37.4 °F 17% 30.17 in 10.0 mi WSW 6.9 mph - N/A   Clear
2:15 PM 87.8 °F 39.2 °F 18% 30.16 in 10.0 mi SW 6.9 mph - N/A   Clear
2:55 PM 89.6 °F 37.4 °F 16% 30.15 in 10.0 mi SW 5.8 mph - N/A   Clear
3:15 PM 89.6 °F 39.2 °F 17% 30.15 in 10.0 mi SW 5.8 mph - N/A   Clear
3:35 PM 89.6 °F 39.2 °F 17% 30.14 in 10.0 mi Calm Calm - N/A   Clear
3:55 PM 89.6 °F 41.0 °F 18% 30.14 in 10.0 mi West 6.9 mph - N/A   Clear
4:15 PM 89.6 °F 39.2 °F 17% 30.14 in 10.0 mi WSW 6.9 mph - N/A   Clear
4:35 PM 87.8 °F 37.4 °F 17% 30.14 in 10.0 mi West 8.1 mph - N/A   Clear
4:55 PM 86.0 °F 39.2 °F 19% 30.13 in 10.0 mi West 5.8 mph - N/A   Clear
5:15 PM 86.0 °F 39.2 °F 19% 30.13 in 10.0 mi WNW 5.8 mph - N/A   Clear
5:35 PM 86.0 °F 39.2 °F 19% 30.12 in 10.0 mi West 3.5 mph - N/A   Clear
5:55 PM 84.2 °F 39.2 °F 20% 30.12 in 10.0 mi West 4.6 mph - N/A   Clear
6:15 PM 84.2 °F 39.2 °F 20% 30.12 in 10.0 mi West 3.5 mph - N/A   Clear
6:35 PM 82.4 °F 39.2 °F 21% 30.12 in 10.0 mi West 3.5 mph - N/A   Clear
6:55 PM 80.6 °F 39.2 °F 23% 30.12 in 10.0 mi West 4.6 mph - N/A   Clear
7:15 PM 77.0 °F 41.0 °F 28% 30.12 in 10.0 mi WNW 4.6 mph - N/A   Clear
7:35 PM 75.2 °F 39.2 °F 27% 30.12 in 10.0 mi WNW 4.6 mph - N/A   Clear
7:55 PM 71.6 °F 41.0 °F 33% 30.13 in 10.0 mi NNW 3.5 mph - N/A   Clear
8:15 PM 68.0 °F 44.6 °F 43% 30.13 in 10.0 mi North 3.5 mph - N/A   Clear
8:35 PM 68.0 °F 44.6 °F 43% 30.14 in 10.0 mi Calm Calm - N/A   Clear
8:55 PM 64.4 °F 44.6 °F 49% 30.14 in 10.0 mi Calm Calm - N/A   Clear
9:15 PM 64.4 °F 44.6 °F 49% 30.15 in 10.0 mi NE 3.5 mph - N/A   Clear
9:35 PM 64.4 °F 44.6 °F 49% 30.15 in 10.0 mi NE 4.6 mph - N/A   Clear
9:55 PM 62.6 °F 44.6 °F 52% 30.15 in 10.0 mi Calm Calm - N/A   Clear
10:15 PM 60.8 °F 44.6 °F 55% 30.15 in 10.0 mi Calm Calm - N/A   Clear
10:35 PM 59.0 °F 44.6 °F 59% 30.15 in 10.0 mi Calm Calm - N/A   Clear
10:55 PM 59.0 °F 44.6 °F 59% 30.15 in 10.0 mi Calm Calm - N/A   Clear
11:15 PM 59.0 °F 44.6 °F 59% 30.15 in 10.0 mi Calm Calm - N/A   Clear
11:35 PM 59.0 °F 44.6 °F 59% 30.15 in 10.0 mi Calm Calm - N/A   Clear
11:55 PM 59.0 °F 44.6 °F 59% 30.15 in 10.0 mi NE 3.5 mph - N/A   Clear